When you browse on this site, cookies collect data to enhance your experience and personalize the content and advertising you see.
Visit our Privacy Policy to learn more. By continuing to use the site, you agree to this use of cookies and data.
  • In France
  • List of Countries
  • For 7 days
  • Water Temperature
  • Satellite Maps
  • Weather Map
  • Weather Widgets
  • user-avatar
    Login

    Hourly Weather Chakhansur

    Today, 22 July, Monday

    Time Temperature Precipitation Wind Pressure Humidity
    00:00 +37°C° 0 mm 5 mps 707 mmHg 11%
    01:00 +36°C° 0 mm 5 mps 707 mmHg 13%
    02:00 +35°C° 0 mm 5 mps 707 mmHg 14%
    03:00 +34°C° 0 mm 5 mps 707 mmHg 15%
    04:00 +34°C° 0 mm 5 mps 708 mmHg 17%
    05:00 +35°C° 0 mm 6 mps 708 mmHg 16%
    06:00 +36°C° 0 mm 6 mps 709 mmHg 15%
    07:00 +38°C° 0 mm 7 mps 710 mmHg 14%
    08:00 +41°C° 0 mm 7 mps 710 mmHg 12%
    09:00 +44°C° 0 mm 6 mps 710 mmHg 9%
    10:00 +47°C° 0 mm 6 mps 710 mmHg 7%
    11:00 +48°C° 0 mm 6 mps 709 mmHg 7%
    12:00 +50°C° 0 mm 5 mps 709 mmHg 6%
    13:00 +53°C° 0 mm 5 mps 709 mmHg 6%
    14:00 +53°C° 0 mm 5 mps 708 mmHg 6%
    15:00 +52°C° 0 mm 4 mps 707 mmHg 5%
    16:00 +52°C° 0 mm 4 mps 707 mmHg 5%
    17:00 +50°C° 0 mm 4 mps 707 mmHg 6%
    18:00 +46°C° 0 mm 3 mps 707 mmHg 6%
    19:00 +44°C° 0 mm 3 mps 706 mmHg 7%
    20:00 +44°C° 0 mm 6 mps 707 mmHg 8%
    21:00 +43°C° 0 mm 8 mps 707 mmHg 10%
    22:00 +42°C° 0 mm 10 mps 707 mmHg 12%
    23:00 +39°C° 0 mm 9 mps 707 mmHg 12%

    Tomorrow, 23 July, Tuesday

    Time Temperature Precipitation Wind Pressure Humidity
    00:00 +38°C° 0 mm 9 mps 707 mmHg 13%
    01:00 +37°C° 0 mm 8 mps 707 mmHg 14%
    02:00 +35°C° 0 mm 7 mps 707 mmHg 14%
    03:00 +34°C° 0 mm 6 mps 707 mmHg 15%
    04:00 +32°C° 0 mm 5 mps 707 mmHg 15%
    05:00 +33°C° 0 mm 5 mps 708 mmHg 13%
    06:00 +34°C° 0 mm 6 mps 708 mmHg 12%
    07:00 +35°C° 0 mm 7 mps 709 mmHg 10%
    08:00 +39°C° 0 mm 6 mps 709 mmHg 9%
    09:00 +41°C° 0 mm 5 mps 709 mmHg 9%
    10:00 +45°C° 0 mm 5 mps 710 mmHg 8%
    11:00 +47°C° 0 mm 5 mps 709 mmHg 7%
    12:00 +48°C° 0 mm 5 mps 709 mmHg 7%
    13:00 +50°C° 0 mm 5 mps 709 mmHg 6%
    14:00 +51°C° 0 mm 6 mps 709 mmHg 6%
    15:00 +51°C° 0 mm 6 mps 708 mmHg 5%
    16:00 +52°C° 0 mm 7 mps 708 mmHg 5%
    17:00 +49°C° 0 mm 7 mps 708 mmHg 6%
    18:00 +46°C° 0 mm 7 mps 707 mmHg 6%
    19:00 +44°C° 0 mm 6 mps 707 mmHg 7%
    20:00 +42°C° 0 mm 6 mps 708 mmHg 8%
    21:00 +40°C° 0 mm 6 mps 708 mmHg 9%
    22:00 +39°C° 0 mm 5 mps 708 mmHg 10%
    23:00 +38°C° 0 mm 6 mps 708 mmHg 10%

    Day after tomorrow, 24 July, Wednesday

    Time Temperature Precipitation Wind Pressure Humidity
    00:00 +36°C° 0 mm 6 mps 708 mmHg 9%
    01:00 +34°C° 0 mm 7 mps 708 mmHg 9%
    02:00 +34°C° 0 mm 6 mps 708 mmHg 9%
    03:00 +33°C° 0 mm 6 mps 707 mmHg 9%
    04:00 +32°C° 0 mm 6 mps 707 mmHg 10%
    05:00 +33°C° 0 mm 5 mps 708 mmHg 10%
    06:00 +34°C° 0 mm 5 mps 708 mmHg 10%
    07:00 +35°C° 0 mm 4 mps 709 mmHg 10%
    08:00 +37°C° 0 mm 5 mps 709 mmHg 9%
    09:00 +41°C° 0 mm 5 mps 709 mmHg 8%
    10:00 +43°C° 0 mm 5 mps 709 mmHg 7%
    11:00 +46°C° 0 mm 6 mps 709 mmHg 6%
    12:00 +47°C° 0 mm 7 mps 708 mmHg 6%
    13:00 +50°C° 0 mm 8 mps 708 mmHg 5%
    14:00 +51°C° 0 mm 7 mps 707 mmHg 5%
    15:00 +51°C° 0 mm 7 mps 707 mmHg 5%
    16:00 +52°C° 0 mm 7 mps 707 mmHg 4%
    17:00 +48°C° 0 mm 6 mps 706 mmHg 5%
    18:00 +46°C° 0 mm 6 mps 706 mmHg 6%
    19:00 +43°C° 0 mm 5 mps 706 mmHg 7%
    20:00 +44°C° 0 mm 7 mps 706 mmHg 7%
    21:00 +43°C° 0 mm 8 mps 706 mmHg 7%
    22:00 +42°C° 0 mm 9 mps 706 mmHg 8%
    23:00 +40°C° 0 mm 9 mps 706 mmHg 9%

    25 July, Thursday

    Time Temperature Precipitation Wind Pressure Humidity
    00:00 +39°C° 0 mm 8 mps 706 mmHg 9%
    01:00 +37°C° 0 mm 8 mps 706 mmHg 10%
    02:00 +36°C° 0 mm 7 mps 706 mmHg 12%
    03:00 +35°C° 0 mm 7 mps 706 mmHg 13%
    04:00 +34°C° 0 mm 6 mps 706 mmHg 15%
    05:00 +35°C° 0 mm 7 mps 706 mmHg 15%
    06:00 +35°C° 0 mm 7 mps 707 mmHg 15%
    07:00 +36°C° 0 mm 7 mps 707 mmHg 15%
    08:00 +40°C° 0 mm 7 mps 707 mmHg 12%
    09:00 +44°C° 0 mm 6 mps 708 mmHg 10%
    10:00 +46°C° 0 mm 6 mps 708 mmHg 7%
    11:00 +48°C° 0 mm 6 mps 707 mmHg 7%
    12:00 +51°C° 0 mm 6 mps 707 mmHg 6%
    13:00 +52°C° 0 mm 5 mps 707 mmHg 5%
    14:00 +52°C° 0 mm 6 mps 706 mmHg 5%
    15:00 +53°C° 0 mm 7 mps 705 mmHg 5%
    16:00 +54°C° 0 mm 8 mps 705 mmHg 5%
    17:00 +51°C° 0 mm 9 mps 705 mmHg 6%
    18:00 +49°C° 0 mm 9 mps 704 mmHg 7%
    19:00 +47°C° 0 mm 10 mps 704 mmHg 8%
    20:00 +45°C° 0 mm 10 mps 704 mmHg 9%
    21:00 +44°C° 0 mm 9 mps 704 mmHg 10%
    22:00 +43°C° 0 mm 9 mps 704 mmHg 12%
    23:00 +40°C° 0 mm 8 mps 704 mmHg 13%

    26 July, Friday

    Time Temperature Precipitation Wind Pressure Humidity
    00:00 +39°C° 0 mm 8 mps 703 mmHg 14%
    01:00 +38°C° 0 mm 7 mps 703 mmHg 15%
    02:00 +36°C° 0 mm 7 mps 703 mmHg 15%
    03:00 +35°C° 0 mm 7 mps 703 mmHg 16%
    04:00 +35°C° 0 mm 6 mps 703 mmHg 16%
    05:00 +35°C° 0 mm 7 mps 703 mmHg 16%
    06:00 +36°C° 0 mm 7 mps 704 mmHg 15%
    07:00 +38°C° 0 mm 8 mps 704 mmHg 14%
    08:00 +41°C° 0 mm 7 mps 705 mmHg 11%
    09:00 +44°C° 0 mm 7 mps 705 mmHg 9%
    10:00 +47°C° 0 mm 6 mps 705 mmHg 7%
    11:00 +48°C° 0 mm 6 mps 705 mmHg 6%
    12:00 +50°C° 0 mm 5 mps 705 mmHg 5%
    13:00 +51°C° 0 mm 4 mps 704 mmHg 5%
    14:00 +52°C° 0 mm 4 mps 704 mmHg 4%
    15:00 +52°C° 0 mm 4 mps 703 mmHg 4%
    16:00 +52°C° 0 mm 4 mps 703 mmHg 4%
    17:00 +49°C° 0 mm 4 mps 703 mmHg 5%
    18:00 +46°C° 0 mm 3 mps 702 mmHg 6%
    19:00 +43°C° 0 mm 3 mps 702 mmHg 7%
    20:00 +42°C° 0 mm 4 mps 703 mmHg 8%
    21:00 +41°C° 0 mm 6 mps 703 mmHg 8%
    22:00 +41°C° 0 mm 7 mps 703 mmHg 9%
    23:00 +39°C° 0 mm 7 mps 703 mmHg 10%

    27 July, Saturday

    Time Temperature Precipitation Wind Pressure Humidity
    00:00 +38°C° 0 mm 6 mps 703 mmHg 11%
    01:00 +36°C° 0 mm 6 mps 703 mmHg 11%
    02:00 +35°C° 0 mm 6 mps 703 mmHg 12%
    03:00 +35°C° 0 mm 6 mps 703 mmHg 13%
    04:00 +34°C° 0 mm 6 mps 704 mmHg 13%
    05:00 +35°C° 0 mm 6 mps 704 mmHg 13%
    06:00 +36°C° 0 mm 6 mps 705 mmHg 12%
    07:00 +36°C° 0 mm 6 mps 705 mmHg 11%
    08:00 +40°C° 0 mm 6 mps 705 mmHg 10%
    09:00 +43°C° 0 mm 5 mps 706 mmHg 9%
    10:00 +46°C° 0 mm 5 mps 706 mmHg 8%
    11:00 +48°C° 0 mm 5 mps 706 mmHg 7%
    12:00 +50°C° 0 mm 5 mps 706 mmHg 7%
    13:00 +51°C° 0 mm 4 mps 706 mmHg 6%
    14:00 +52°C° 0 mm 5 mps 705 mmHg 6%
    15:00 +53°C° 0 mm 5 mps 705 mmHg 5%
    16:00 +53°C° 0 mm 5 mps 704 mmHg 5%
    17:00 +49°C° 0 mm 4 mps 704 mmHg 6%
    18:00 +46°C° 0 mm 3 mps 704 mmHg 7%
    19:00 +42°C° 0 mm 2 mps 703 mmHg 8%
    20:00 +42°C° 0 mm 3 mps 704 mmHg 9%
    21:00 +40°C° 0 mm 3 mps 704 mmHg 10%
    22:00 +40°C° 0 mm 4 mps 705 mmHg 11%
    23:00 +38°C° 0 mm 4 mps 705 mmHg 11%
    Show more